Вернуться в каталог

KUIPER-00610

АктивенСвязьLEO
NORAD 69292·PAYLOAD·🇺🇸 United States

Запущен May 29, 2026 с Vandenberg Space Force Base

Loading…

Ближайшие Пролёты (ближайшие 24 часа)

TLE

СвежийSource: CelesTrak SupGP

Эпоха: Sep 14, 2026, 16:58 UTC

1 69292C 26118AB  26257.70719907  .00008468  00000+0  11085-2 0  2577
2 69292  51.9030 357.3103 0000423  90.9250  83.8159 14.79923536    18

Отслеживайте KUIPER-00610 в реальном времени с AllMySat

Download on the App Store